JBU8352 KMCO-KFLL

Flight info

Callsign JBU8352
Flight time 1h 9m
Altitude 26000
Route DDANY3 JIPOD CUUDA3
Aircraft A320/M-SDE3FGHIRWY/LB1

Departure

Time 2026-05-03 22:39
Airport Orlando International Airport (KMCO)

Arrival

Time 2026-05-03 23:48
Airport Fort Lauderdale Hollywood International Airport (KFLL)
Time Latitude Longitude Altitude Speed Heading
2026-05-03 22:15 28.43423 -81.31593 101 ft 0 kts 119°
2026-05-03 22:25 28.43428 -81.31604 102 ft 3 kts 119°
2026-05-03 22:26 28.43437 -81.31621 101 ft 3 kts 119°
2026-05-03 22:26 28.43445 -81.31638 99 ft 2 kts 119°
2026-05-03 22:26 28.43454 -81.31654 101 ft 2 kts 129°
2026-05-03 22:26 28.43467 -81.31666 100 ft 2 kts 160°
2026-05-03 22:27 28.43476 -81.31669 100 ft 0 kts 191°
2026-05-03 22:31 28.43462 -81.31672 100 ft 9 kts 191°
2026-05-03 22:31 28.43373 -81.31693 102 ft 16 kts 192°
2026-05-03 22:31 28.43270 -81.31755 101 ft 18 kts 232°
2026-05-03 22:31 28.43169 -81.31837 102 ft 20 kts 184°
2026-05-03 22:32 28.43019 -81.31838 103 ft 23 kts 179°
2026-05-03 22:32 28.42845 -81.31837 103 ft 26 kts 180°
2026-05-03 22:32 28.42660 -81.31834 107 ft 27 kts 179°
2026-05-03 22:32 28.42463 -81.31831 106 ft 29 kts 179°
2026-05-03 22:33 28.42351 -81.31793 105 ft 16 kts 112°
2026-05-03 22:33 28.42348 -81.31649 104 ft 21 kts 89°
2026-05-03 22:33 28.42348 -81.31458 101 ft 27 kts 90°
2026-05-03 22:33 28.42347 -81.31232 100 ft 29 kts 95°
2026-05-03 22:34 28.42318 -81.31010 100 ft 27 kts 94°
2026-05-03 22:34 28.42329 -81.30793 104 ft 27 kts 85°
2026-05-03 22:34 28.42344 -81.30582 105 ft 28 kts 84°
2026-05-03 22:34 28.42356 -81.30364 101 ft 28 kts 86°
2026-05-03 22:35 28.42361 -81.30141 104 ft 29 kts 89°
2026-05-03 22:35 28.42363 -81.29923 104 ft 22 kts 89°
2026-05-03 22:35 28.42334 -81.29797 102 ft 16 kts 158°
2026-05-03 22:35 28.42210 -81.29792 102 ft 20 kts 180°
2026-05-03 22:36 28.42056 -81.29790 102 ft 24 kts 180°
2026-05-03 22:36 28.41876 -81.29788 102 ft 27 kts 179°
2026-05-03 22:36 28.41676 -81.29786 102 ft 30 kts 179°
2026-05-03 22:36 28.41461 -81.29784 102 ft 32 kts 179°
2026-05-03 22:37 28.41236 -81.29781 101 ft 25 kts 178°
2026-05-03 22:37 28.41060 -81.29780 101 ft 27 kts 178°
2026-05-03 22:37 28.40896 -81.29778 100 ft 17 kts 181°
2026-05-03 22:37 28.40820 -81.29716 99 ft 14 kts 93°
2026-05-03 22:38 28.40822 -81.29642 98 ft 9 kts 90°
2026-05-03 22:38 28.40848 -81.29562 97 ft 13 kts 25°
2026-05-03 22:38 28.41033 -81.29561 99 ft 57 kts 359°
2026-05-03 22:38 28.41647 -81.29568 106 ft 117 kts 360°
2026-05-03 22:39 28.42617 -81.29581 254 ft 150 kts
2026-05-03 22:39 28.43663 -81.29622 946 ft 151 kts
2026-05-03 22:39 28.44729 -81.29569 1435 ft 162 kts 22°
2026-05-03 22:39 28.45686 -81.28802 1735 ft 181 kts 52°
2026-05-03 22:40 28.46492 -81.27602 2095 ft 206 kts 53°
2026-05-03 22:40 28.47419 -81.26204 2600 ft 231 kts 53°
2026-05-03 22:40 28.48311 -81.24641 3267 ft 247 kts 68°
2026-05-03 22:40 28.48552 -81.22698 4165 ft 255 kts 97°
2026-05-03 22:41 28.47916 -81.20788 5005 ft 266 kts 122°
2026-05-03 22:41 28.46896 -81.18995 5854 ft 274 kts 124°
2026-05-03 22:41 28.45830 -81.17160 6682 ft 282 kts 124°
2026-05-03 22:41 28.44735 -81.15276 7481 ft 289 kts 125°
2026-05-03 22:42 28.43613 -81.13341 8273 ft 296 kts 125°
2026-05-03 22:42 28.42468 -81.11364 9077 ft 303 kts 126°
2026-05-03 22:42 28.41294 -81.09333 9857 ft 311 kts 127°
2026-05-03 22:42 28.40082 -81.07234 10326 ft 329 kts 127°
2026-05-03 22:43 28.38779 -81.04981 10550 ft 353 kts 127°
2026-05-03 22:43 28.37401 -81.02596 11004 ft 366 kts 127°
2026-05-03 22:43 28.35998 -81.00158 11714 ft 371 kts 127°
2026-05-03 22:43 28.34584 -80.97697 12456 ft 374 kts 127°
2026-05-03 22:44 28.33158 -80.95215 13216 ft 377 kts 127°
2026-05-03 22:44 28.31716 -80.92714 13801 ft 381 kts 128°
2026-05-03 22:44 28.30265 -80.90197 13962 ft 381 kts 127°
2026-05-03 22:44 28.28812 -80.87677 14013 ft 382 kts 127°
2026-05-03 22:45 28.27543 -80.84994 14422 ft 391 kts 117°
2026-05-03 22:45 28.26514 -80.82113 15039 ft 396 kts 116°
2026-05-03 22:45 28.25469 -80.79204 15604 ft 401 kts 116°
2026-05-03 22:45 28.24403 -80.76259 16173 ft 406 kts 116°
2026-05-03 22:46 28.23334 -80.73316 16714 ft 412 kts 116°
2026-05-03 22:46 28.22234 -80.70295 17282 ft 417 kts 117°
2026-05-03 22:46 28.21121 -80.67235 17845 ft 423 kts 117°
2026-05-03 22:46 28.20025 -80.64114 18394 ft 429 kts 115°
2026-05-03 22:47 28.18963 -80.60932 18860 ft 434 kts 115°
2026-05-03 22:47 28.17920 -80.57703 19403 ft 438 kts 115°
2026-05-03 22:47 28.16875 -80.54442 19964 ft 442 kts 115°
2026-05-03 22:47 28.15816 -80.51159 20538 ft 445 kts 115°
2026-05-03 22:48 28.14740 -80.47860 21109 ft 448 kts 116°
2026-05-03 22:48 28.13646 -80.44543 21647 ft 451 kts 116°
2026-05-03 22:48 28.12533 -80.41199 22181 ft 455 kts 116°
2026-05-03 22:48 28.11334 -80.37885 22694 ft 453 kts 124°
2026-05-03 22:49 28.09660 -80.34905 23002 ft 444 kts 136°
2026-05-03 22:49 28.07486 -80.32483 23075 ft 436 kts 152°
2026-05-03 22:49 28.04897 -80.30736 23069 ft 431 kts 162°
2026-05-03 22:49 28.02168 -80.29376 23039 ft 427 kts 167°
2026-05-03 22:50 27.99381 -80.28252 23067 ft 425 kts 169°
2026-05-03 22:50 27.96591 -80.27122 23067 ft 426 kts 168°
2026-05-03 22:50 27.93806 -80.25985 23069 ft 426 kts 168°
2026-05-03 22:50 27.91014 -80.24852 23070 ft 426 kts 169°
2026-05-03 22:51 27.88223 -80.23735 23070 ft 425 kts 169°
2026-05-03 22:51 27.85428 -80.22633 23068 ft 425 kts 169°
2026-05-03 22:51 27.82632 -80.21544 23066 ft 425 kts 169°
2026-05-03 22:51 27.79834 -80.20462 23068 ft 425 kts 169°
2026-05-03 22:52 27.77039 -80.19384 23065 ft 425 kts 169°
2026-05-03 22:52 27.74243 -80.18304 23066 ft 425 kts 169°
2026-05-03 22:52 27.71448 -80.17218 23054 ft 425 kts 169°
2026-05-03 22:52 27.68659 -80.16117 23033 ft 423 kts 167°
2026-05-03 22:53 27.66085 -80.14472 23063 ft 433 kts 149°
2026-05-03 22:53 27.63997 -80.11951 23058 ft 449 kts 131°
2026-05-03 22:53 27.62602 -80.08746 23055 ft 464 kts 112°
2026-05-03 22:53 27.62052 -80.05131 23054 ft 474 kts 94°
2026-05-03 22:54 27.62347 -80.01408 23053 ft 479 kts 83°
2026-05-03 22:54 27.62888 -79.97703 23051 ft 479 kts 82°
2026-05-03 22:54 27.63443 -79.93994 23052 ft 481 kts 83°
2026-05-03 22:54 27.63619 -79.90258 23050 ft 486 kts 98°
2026-05-03 22:55 27.62959 -79.86555 23053 ft 479 kts 115°
2026-05-03 22:55 27.61523 -79.83233 23051 ft 466 kts 131°
2026-05-03 22:55 27.59459 -79.80503 23051 ft 451 kts 146°
2026-05-03 22:55 27.56956 -79.78475 23048 ft 437 kts 159°
2026-05-03 22:56 27.54192 -79.77205 23052 ft 423 kts 173°
2026-05-03 22:56 27.51340 -79.76691 23050 ft 410 kts 185°
2026-05-03 22:56 27.48504 -79.76712 23052 ft 407 kts 188°
2026-05-03 22:56 27.45669 -79.76769 23050 ft 407 kts 188°
2026-05-03 22:57 27.42833 -79.76826 23045 ft 407 kts 188°
2026-05-03 22:57 27.40001 -79.76883 23043 ft 407 kts 188°
2026-05-03 22:57 27.37172 -79.76940 23041 ft 407 kts 188°
2026-05-03 22:57 27.34344 -79.76997 23035 ft 402 kts 188°
2026-05-03 22:58 27.31604 -79.77043 22810 ft 389 kts 188°
2026-05-03 22:58 27.28921 -79.77087 22370 ft 383 kts 188°
2026-05-03 22:58 27.26271 -79.77138 21890 ft 379 kts 188°
2026-05-03 22:58 27.23642 -79.77194 21407 ft 376 kts 188°
2026-05-03 22:59 27.21032 -79.77252 20915 ft 374 kts 188°
2026-05-03 22:59 27.18440 -79.77310 20422 ft 372 kts 188°
2026-05-03 22:59 27.15856 -79.77365 19928 ft 370 kts 187°
2026-05-03 22:59 27.13294 -79.77417 19455 ft 367 kts 187°
2026-05-03 23:00 27.10746 -79.77467 18997 ft 365 kts 187°
2026-05-03 23:00 27.08210 -79.77517 18472 ft 364 kts 187°
2026-05-03 23:00 27.05718 -79.77569 18107 ft 362 kts 187°
2026-05-03 23:00 27.03158 -79.77623 17998 ft 364 kts 187°
2026-05-03 23:01 27.00656 -79.77672 18028 ft 365 kts 187°
2026-05-03 23:01 26.98079 -79.77723 18034 ft 366 kts 186°
2026-05-03 23:01 26.95571 -79.77772 18023 ft 366 kts 186°
2026-05-03 23:01 26.93024 -79.77824 18023 ft 365 kts 187°
2026-05-03 23:02 26.90479 -79.77878 18019 ft 366 kts 187°
2026-05-03 23:02 26.87937 -79.77930 18019 ft 366 kts 186°
2026-05-03 23:02 26.85394 -79.77979 18024 ft 366 kts 186°
2026-05-03 23:02 26.82845 -79.78029 18025 ft 366 kts 187°
2026-05-03 23:03 26.80303 -79.78081 18027 ft 366 kts 187°
2026-05-03 23:03 26.77755 -79.78133 18022 ft 367 kts 186°
2026-05-03 23:03 26.75205 -79.78185 18026 ft 367 kts 186°
2026-05-03 23:03 26.72652 -79.78235 18027 ft 366 kts 187°
2026-05-03 23:04 26.70133 -79.78473 18035 ft 361 kts 195°
2026-05-03 23:04 26.68527 -79.78902 18025 ft 356 kts 202°
2026-05-03 23:04 26.66203 -79.79834 18039 ft 355 kts 205°
2026-05-03 23:04 26.63882 -79.80791 18036 ft 355 kts 205°
2026-05-03 23:05 26.61576 -79.81733 18024 ft 345 kts 205°
2026-05-03 23:05 26.59376 -79.82620 18026 ft 327 kts 205°
2026-05-03 23:05 26.57291 -79.83460 18027 ft 311 kts 205°
2026-05-03 23:05 26.55300 -79.84256 18028 ft 297 kts 202°
2026-05-03 23:06 26.53278 -79.84579 18028 ft 294 kts 184°
2026-05-03 23:06 26.51291 -79.84049 18028 ft 297 kts 161°
2026-05-03 23:06 26.49605 -79.82652 18018 ft 311 kts 136°
2026-05-03 23:06 26.48531 -79.80521 18028 ft 323 kts 109°
2026-05-03 23:07 26.48354 -79.78009 18030 ft 330 kts 81°
2026-05-03 23:07 26.49155 -79.75628 18026 ft 330 kts 53°
2026-05-03 23:07 26.50763 -79.73861 18039 ft 323 kts 25°
2026-05-03 23:07 26.52779 -79.72815 18030 ft 320 kts 16°
2026-05-03 23:08 26.54847 -79.71894 18027 ft 320 kts 15°
2026-05-03 23:08 26.56927 -79.70999 18024 ft 320 kts 15°
2026-05-03 23:08 26.59010 -79.70109 18022 ft 320 kts 15°
2026-05-03 23:08 26.61092 -79.69215 18029 ft 320 kts 15°
2026-05-03 23:09 26.63171 -79.68316 18022 ft 320 kts 15°
2026-05-03 23:09 26.65251 -79.67411 18029 ft 320 kts 15°
2026-05-03 23:09 26.67331 -79.66518 18024 ft 319 kts 12°
2026-05-03 23:09 26.69462 -79.66187 18025 ft 303 kts 347°
2026-05-03 23:10 26.71428 -79.66786 18023 ft 287 kts 324°
2026-05-03 23:10 26.72969 -79.68106 18028 ft 274 kts 303°
2026-05-03 23:10 26.73940 -79.69873 18023 ft 263 kts 284°
2026-05-03 23:10 26.74295 -79.71845 18022 ft 257 kts 267°
2026-05-03 23:11 26.74035 -79.73798 18033 ft 255 kts 250°
2026-05-03 23:11 26.73228 -79.75528 18032 ft 256 kts 234°
2026-05-03 23:11 26.71924 -79.76890 18028 ft 260 kts 216°
2026-05-03 23:11 26.70275 -79.77829 18030 ft 264 kts 209°
2026-05-03 23:12 26.68592 -79.78606 18024 ft 266 kts 207°
2026-05-03 23:12 26.66859 -79.79346 18027 ft 267 kts 206°
2026-05-03 23:12 26.65124 -79.80071 18045 ft 266 kts 206°
2026-05-03 23:12 26.63390 -79.80798 18030 ft 266 kts 206°
2026-05-03 23:13 26.61660 -79.81532 18031 ft 266 kts 207°
2026-05-03 23:13 26.59932 -79.82273 18027 ft 266 kts 207°
2026-05-03 23:13 26.58212 -79.83017 18027 ft 265 kts 207°
2026-05-03 23:13 26.56490 -79.83767 18031 ft 265 kts 207°
2026-05-03 23:14 26.54743 -79.84449 18038 ft 270 kts 197°
2026-05-03 23:14 26.52833 -79.84368 18034 ft 287 kts 170°
2026-05-03 23:14 26.51077 -79.83199 18031 ft 307 kts 139°
2026-05-03 23:14 26.50011 -79.81086 18017 ft 323 kts 107°
2026-05-03 23:15 26.50002 -79.78574 18017 ft 329 kts 74°
2026-05-03 23:15 26.51076 -79.76344 18036 ft 327 kts 42°
2026-05-03 23:15 26.52901 -79.74902 18027 ft 321 kts 20°
2026-05-03 23:15 26.54959 -79.73988 18032 ft 317 kts 11°
2026-05-03 23:16 26.57072 -79.73285 18033 ft 317 kts
2026-05-03 23:16 26.59192 -79.72608 18028 ft 317 kts 10°
2026-05-03 23:16 26.61303 -79.71877 18021 ft 318 kts 12°
2026-05-03 23:16 26.63400 -79.71074 18032 ft 319 kts 14°
2026-05-03 23:17 26.65484 -79.70213 18022 ft 319 kts 15°
2026-05-03 23:17 26.67556 -79.69318 18028 ft 319 kts 15°
2026-05-03 23:17 26.69674 -79.68806 18028 ft 304 kts 349°
2026-05-03 23:17 26.71619 -79.69414 18030 ft 283 kts 320°
2026-05-03 23:18 26.72965 -79.70897 18022 ft 266 kts 293°
2026-05-03 23:18 26.73528 -79.72806 18025 ft 256 kts 270°
2026-05-03 23:18 26.73309 -79.74751 18030 ft 253 kts 248°
2026-05-03 23:18 26.72376 -79.76416 18029 ft 256 kts 227°
2026-05-03 23:19 26.70877 -79.77515 18028 ft 263 kts 209°
2026-05-03 23:19 26.69179 -79.78308 18030 ft 265 kts 207°
2026-05-03 23:19 26.67457 -79.79053 18025 ft 266 kts 206°
2026-05-03 23:19 26.65729 -79.79784 18045 ft 266 kts 206°
2026-05-03 23:20 26.64003 -79.80518 18036 ft 265 kts 207°
2026-05-03 23:20 26.62305 -79.81247 18032 ft 265 kts 207°
2026-05-03 23:20 26.60586 -79.81990 18032 ft 265 kts 207°
2026-05-03 23:20 26.58868 -79.82733 18033 ft 265 kts 207°
2026-05-03 23:21 26.57150 -79.83482 18035 ft 265 kts 207°
2026-05-03 23:21 26.55435 -79.84225 18043 ft 266 kts 205°
2026-05-03 23:21 26.53577 -79.84516 18033 ft 279 kts 180°
2026-05-03 23:21 26.51706 -79.83769 18026 ft 299 kts 152°
2026-05-03 23:22 26.49887 -79.79537 18012 ft 328 kts 86°
2026-05-03 23:22 26.50567 -79.77126 18038 ft 329 kts 54°
2026-05-03 23:22 26.52171 -79.75377 18026 ft 322 kts 26°
2026-05-03 23:23 26.54175 -79.74311 18027 ft 318 kts 14°
2026-05-03 23:23 26.56273 -79.73564 18038 ft 316 kts
2026-05-03 23:23 26.58392 -79.72899 18035 ft 316 kts
2026-05-03 23:23 26.60505 -79.72199 18021 ft 317 kts 11°
2026-05-03 23:24 26.62608 -79.71425 18021 ft 318 kts 13°
2026-05-03 23:24 26.64692 -79.70584 18025 ft 319 kts 15°
2026-05-03 23:24 26.66766 -79.69700 18029 ft 319 kts 15°
2026-05-03 23:24 26.68855 -79.68906 18025 ft 312 kts
2026-05-03 23:25 26.70925 -79.69086 18032 ft 291 kts 330°
2026-05-03 23:25 26.72526 -79.70295 18030 ft 271 kts 302°
2026-05-03 23:25 26.73390 -79.72091 18029 ft 259 kts 278°
2026-05-03 23:25 26.73466 -79.74063 18023 ft 253 kts 256°
2026-05-03 23:26 26.72803 -79.75839 18027 ft 253 kts 235°
2026-05-03 23:26 26.71495 -79.77166 18012 ft 260 kts 213°
2026-05-03 23:26 26.69823 -79.78033 17738 ft 260 kts 208°
2026-05-03 23:26 26.68151 -79.78774 17486 ft 263 kts 206°
2026-05-03 23:27 26.66420 -79.79504 17229 ft 262 kts 206°
2026-05-03 23:27 26.64736 -79.80215 16992 ft 262 kts 206°
2026-05-03 23:27 26.63037 -79.80939 16613 ft 261 kts 207°
2026-05-03 23:27 26.61281 -79.81701 15783 ft 280 kts 206°
2026-05-03 23:28 26.59415 -79.82515 15044 ft 294 kts 206°
2026-05-03 23:28 26.57491 -79.83350 14578 ft 298 kts 206°
2026-05-03 23:28 26.55561 -79.84184 14199 ft 297 kts 205°
2026-05-03 23:28 26.53643 -79.85037 13828 ft 296 kts 206°
2026-05-03 23:29 26.51743 -79.85921 13437 ft 295 kts 207°
2026-05-03 23:29 26.49859 -79.86814 13037 ft 294 kts 207°
2026-05-03 23:29 26.47981 -79.87707 12649 ft 293 kts 207°
2026-05-03 23:29 26.46111 -79.88597 12274 ft 292 kts 207°
2026-05-03 23:30 26.44247 -79.89481 11900 ft 291 kts 207°
2026-05-03 23:30 26.42388 -79.90358 11537 ft 289 kts 207°
2026-05-03 23:30 26.40539 -79.91228 11170 ft 288 kts 207°
2026-05-03 23:30 26.38707 -79.92087 10594 ft 284 kts 208°
2026-05-03 23:31 26.36986 -79.93126 9930 ft 280 kts 214°
2026-05-03 23:31 26.35304 -79.94215 9238 ft 279 kts 213°
2026-05-03 23:31 26.33629 -79.95292 8571 ft 277 kts 213°
2026-05-03 23:31 26.31966 -79.96359 8128 ft 275 kts 213°
2026-05-03 23:32 26.30326 -79.97408 8010 ft 271 kts 213°
2026-05-03 23:32 26.28697 -79.98450 8015 ft 270 kts 213°
2026-05-03 23:32 26.27064 -79.99496 7814 ft 272 kts 213°
2026-05-03 23:32 26.25420 -80.00551 7419 ft 273 kts 213°
2026-05-03 23:33 26.23775 -80.01608 7070 ft 273 kts 213°
2026-05-03 23:33 26.22135 -80.02663 6739 ft 272 kts 213°
2026-05-03 23:33 26.20521 -80.03701 6399 ft 271 kts 213°
2026-05-03 23:33 26.18990 -80.04895 6059 ft 267 kts 225°
2026-05-03 23:34 26.17845 -80.06477 5843 ft 257 kts 241°
2026-05-03 23:34 26.17164 -80.08225 5712 ft 236 kts 252°
2026-05-03 23:34 26.16668 -80.09885 5578 ft 216 kts 252°
2026-05-03 23:34 26.16210 -80.11399 5457 ft 197 kts 252°
2026-05-03 23:35 26.15785 -80.12798 5311 ft 186 kts 252°
2026-05-03 23:35 26.15376 -80.14148 5099 ft 183 kts 252°
2026-05-03 23:35 26.15080 -80.15519 4940 ft 182 kts 263°
2026-05-03 23:35 26.15025 -80.16927 4807 ft 183 kts 270°
2026-05-03 23:36 26.15036 -80.18348 4687 ft 185 kts 269°
2026-05-03 23:36 26.15044 -80.19782 4537 ft 186 kts 270°
2026-05-03 23:36 26.15053 -80.21217 4283 ft 185 kts 270°
2026-05-03 23:36 26.15061 -80.22648 4087 ft 185 kts 270°
2026-05-03 23:37 26.15068 -80.24082 3903 ft 186 kts 270°
2026-05-03 23:37 26.15072 -80.25522 3744 ft 187 kts 271°
2026-05-03 23:37 26.15087 -80.26972 3531 ft 187 kts 270°
2026-05-03 23:37 26.15103 -80.28417 3294 ft 187 kts 270°
2026-05-03 23:38 26.15108 -80.29869 3075 ft 186 kts 270°
2026-05-03 23:38 26.15105 -80.31313 3016 ft 186 kts 269°
2026-05-03 23:38 26.15095 -80.32765 3022 ft 189 kts 270°
2026-05-03 23:38 26.15079 -80.34219 3019 ft 188 kts 269°
2026-05-03 23:39 26.15060 -80.35678 3025 ft 189 kts 269°
2026-05-03 23:39 26.15037 -80.37144 3021 ft 189 kts 269°
2026-05-03 23:39 26.15011 -80.38593 3017 ft 186 kts 268°
2026-05-03 23:39 26.14986 -80.40028 3019 ft 186 kts 268°
2026-05-03 23:40 26.14957 -80.41476 3019 ft 188 kts 268°
2026-05-03 23:40 26.14926 -80.42924 3022 ft 186 kts 268°
2026-05-03 23:40 26.14894 -80.44373 3024 ft 188 kts 268°
2026-05-03 23:40 26.14862 -80.45820 3028 ft 186 kts 268°
2026-05-03 23:41 26.14652 -80.47208 3039 ft 185 kts 242°
2026-05-03 23:41 26.13710 -80.48195 3042 ft 189 kts 203°
2026-05-03 23:41 26.12412 -80.48453 3028 ft 191 kts 186°
2026-05-03 23:41 26.11080 -80.48504 3021 ft 192 kts 183°
2026-05-03 23:42 26.09766 -80.48532 3024 ft 192 kts 181°
2026-05-03 23:42 26.08471 -80.48230 3024 ft 195 kts 152°
2026-05-03 23:42 26.07631 -80.47071 3027 ft 199 kts 105°
2026-05-03 23:42 26.07706 -80.45558 3021 ft 198 kts 77°
2026-05-03 23:43 26.07835 -80.44037 3023 ft 199 kts 90°
2026-05-03 23:43 26.07820 -80.42499 3016 ft 200 kts 91°
2026-05-03 23:43 26.07808 -80.40954 3020 ft 199 kts 91°
2026-05-03 23:43 26.07801 -80.39414 3017 ft 199 kts 90°
2026-05-03 23:44 26.07794 -80.37876 3013 ft 198 kts 90°
2026-05-03 23:44 26.07788 -80.36342 3014 ft 198 kts 90°
2026-05-03 23:44 26.07782 -80.34806 3005 ft 199 kts 90°
2026-05-03 23:44 26.07775 -80.33271 2842 ft 198 kts 90°
2026-05-03 23:45 26.07769 -80.31756 2610 ft 194 kts 90°
2026-05-03 23:45 26.07762 -80.30264 2365 ft 192 kts 90°
2026-05-03 23:45 26.07755 -80.28787 2107 ft 190 kts 89°
2026-05-03 23:45 26.07748 -80.27328 1871 ft 186 kts 89°
2026-05-03 23:46 26.07741 -80.25980 1655 ft 161 kts 89°
2026-05-03 23:46 26.07735 -80.24806 1429 ft 145 kts 89°
2026-05-03 23:46 26.07730 -80.23707 1255 ft 140 kts 88°
2026-05-03 23:46 26.07725 -80.22630 1069 ft 138 kts 88°
2026-05-03 23:47 26.07720 -80.21562 900 ft 137 kts 87°
2026-05-03 23:47 26.07715 -80.20501 733 ft 138 kts 88°
2026-05-03 23:47 26.07709 -80.19439 568 ft 136 kts 88°
2026-05-03 23:47 26.07706 -80.18381 405 ft 137 kts 88°
2026-05-03 23:48 26.07701 -80.17328 209 ft 135 kts 86°
2026-05-03 23:48 26.07692 -80.16286 30 ft 132 kts 87°
2026-05-03 23:48 26.07689 -80.15508 16 ft 60 kts 90°
2026-05-03 23:48 26.07686 -80.15170 17 ft 20 kts 98°
2026-05-03 23:49 26.07621 -80.15125 17 ft 2 kts 179°
2026-05-03 23:49 26.07615 -80.15126 17 ft 0 kts 180°
2026-05-03 23:53 26.07598 -80.15126 17 ft 9 kts 180°
2026-05-03 23:53 26.07475 -80.15126 20 ft 24 kts 180°
2026-05-03 23:54 26.07291 -80.15128 20 ft 28 kts 180°
2026-05-03 23:54 26.07102 -80.15128 23 ft 25 kts 180°
2026-05-03 23:54 26.06924 -80.15129 24 ft 27 kts 180°
2026-05-03 23:54 26.06786 -80.15121 23 ft 15 kts 149°
2026-05-03 23:55 26.06768 -80.15014 22 ft 14 kts 90°
2026-05-03 23:55 26.06768 -80.14945 22 ft 2 kts 90°
2026-05-03 23:55 26.06768 -80.14930 22 ft 0 kts 90°
2026-05-03 23:56 26.06768 -80.14928 22 ft 1 kts 90°
2026-05-03 23:56 26.06767 -80.14883 22 ft 11 kts 90°
2026-05-03 23:56 26.06766 -80.14756 19 ft 20 kts 90°
2026-05-03 23:56 26.06767 -80.14583 16 ft 20 kts 90°
2026-05-03 23:57 26.06753 -80.14464 17 ft 16 kts 92°
2026-05-03 23:57 26.06752 -80.14331 18 ft 17 kts 86°
2026-05-03 23:57 26.06827 -80.14257 18 ft 16 kts
2026-05-03 23:57 26.06887 -80.14256 18 ft 3 kts
2026-05-03 23:58 26.06888 -80.14256 18 ft 0 kts 360°